Погода в Верхнедвинске

Погода в Верхнедвинске : погода сейчас, прогноз погоды и архив. Всё, что Вы хотите узнать о погоде в Верхнедвинске!

Хотите узнать прогноз погоды в Верхнедвинске? Тогда Вам сюда: Погода в Верхнедвинске

Поиск расширенной информации на нашем сайте:

Другие новости

Новости СМИ2

Главная страница сайта

Новости сайта

02.10.2013

Напоминаем, что на нашем новом сайте вы можете получить высокодетализированные прогнозы погоды по пунктам России, СНГ и мира (включающие важные для авиации метеовеличины, такие как направление и скорость ветра, видимость, явления погоды, количество и форма облачности, нижняя и верхняя граница облачности), а также ознакомиться с разнообразными материалами по авиационной метеорологии и подборкой полезных ссылок на эту тему.

Сайт Метеоцентр.Азия посвящён разработке технологий оптимизации авиаметеорологического обслуживания, включая проектирование и перспективное создание нескольких автоматизированных авиаметеорологических систем:
- система выпуска высокодетальных прогностических карт явлений погоды для нижнего воздушного пространства по России и ближнему зарубежью;
- система верификации прогнозов TAF (выпускаемых синоптиками официальных АМСГ РФ и ближнего зарубежья) и AUTOTAF (выпускаемых сайтом Метеоцентр.Азия) - выявление ошибок, онлайн-сопоставление с фактической погодой METAR, автоматическое внесение коррективов в прогнозы при резком отклонении фактической погоды от прогноза, подсчёт оправдываемости прогнозов по элементам и в целом;
- система обработки, анализа и отображения авиаметеорологической информации для применения провайдерами метеорологической информации.


Погода в Верхнедвинске - сегодня

Время (UTC), дата Ветер
(°,м/с) 
Видим.   Явления Облачность Т
(°С)
Тd
(°С)
f(%) Тe
(°С)
Pmin
(гПа)
dP
(гПа)
Po
(мм)
O2
(г/м3)
Тmin Tmax R s Состояние
почвы
00 22.03.17 200 (Ю) 7000 м  дымка  10/0 верхняя 
[Cs]
+2.6 +1.8 94 +3  1011.6  1.6  746  298           
06 22.03.17 тихо ()   3800 м  ливневой дождь  9/9 630 м кучево-дожд., средняя 
[Cb cap|Ac trans]
+1.8 +1.5 98 +2  1011.9  0.1  747  299  +0.8       
15 22.03.17 250 (З) 14000 м    9/1 600 м средняя, верхняя 
[Sc|Ac trans|Ci fib]
+6.5 -0.9 59 +6  1015.7  1.4  750  295         
21 22.03.17 240 (ЮЗ) 10 км    ясно 
+1.8 -1.9 76 +1  1019.7  1.7  752  301           
00 23.03.17 230 (ЮЗ) 10 км    ясно 
+0.3 -3 78 1021.4  1.5  753  304           
03 23.03.17 220 (ЮЗ) 10 км    ясно 
-1.1 -2.9 88 -2  1022.3  0.9  754  305           
09 23.03.17 270 (З) 20000 м    ясно 
+7.8 +1.1 63 +7  1024.2  0.6  756  296           
12 23.03.17 270 (З) 20000 м    3/3 600 м 
[Cu hum]
+9.5 -1.4 46 +8  1023.9  -0.1  756  294           
15 23.03.17 240 (ЮЗ) 20000 м    6/0 верхняя 
[Ci fib]
+10.1 -1.4 45 +10  1023.3  -0.6  755  294           
18 23.03.17 220 (ЮЗ) 15000 м    3/0 средняя 
[Ac trans]
+5.6 -1.4 61 +6  1023.8  0.3  756  298    +10.7       
21 23.03.17 250 (З) 12000 м    5/0 средняя 
[Ac trans]
+4.7 -1.3 65 +6  1023.4  -0.4  755  299           
00 24.03.17 290 (З) 14000 м    8/0 средняя 
[Ac trans]
+3.3 -0.8 74 +4  1022.6  -0.9  755  300           
09 24.03.17 320 (СЗ) 15000 м    1/0 средняя 
[Ac trans]
+6.2 -4.6 46 +5  1021.2  -0.5  754  297           
12 24.03.17 320 (СЗ) 6-10{10}  18000 м    4/4 600 м кучево-дожд., верхняя 
[Cb cap|Ci fib]
+6.9 -5.9 40 +5  1020.8  -0.3  753  297           
18 24.03.17 310 (СЗ) 4{11}  15000 м    1/0 средняя 
[Ac trans]
+2.3 -9.7 41 1023.3  1.9  755  303    +7.8       
21 24.03.17 300 (СЗ) 12000 м    1/0 верхняя 
[Ci fib]
-0.4 -7.7 58 -1  1024.1  0.6  755  306           
00 25.03.17 250 (З) 12000 м    1/0 верхняя 
[Ci fib]
-2.4 -6.2 75 -2  1023.9  -0.3  755  308           
03 25.03.17 250 (З) 12000 м    8/0 верхняя 
[Ci fib]
-2.8 -6.7 74 -4  1022.8  -1.1  754  308           
09 25.03.17 230 (ЮЗ) 20000 м    10/0 верхняя 
[Cs]
+2.8 -5.3 55 +1  1018.2  -2.3  751  300           
18 25.03.17 тихо ()   8000 м  дымка{снег, дождь}  9/9 570 м 
[Sc]
+0.7 -0.1 94 +1  1015.8  0.6  749  301    +3.1  0.7     
00 26.03.17 310 (СЗ) 8000 м  дымка  10/10 270 м 
[St]
+0.6 -0.5 92 +1  1018.8  1.4  752  302           
03 26.03.17 260 (З) 8000 м  дымка  9/9 750 м 
[Sc]
+0.5 -0.3 94 +1  1019.6  0.8  752  303           
06 26.03.17 290 (З) 6000 м  в посл. час ливневой снег  9/9 210 м кучево-дожд. 
[Cb cap]
+0.4 +0.1 98 1020.9  1.2  753  303  -0.8    0.3     
15 26.03.17 250 (З) 12000 м    9/6 600 м средняя 
[Sc|Ac trans]
+3.5 -0.9 73 +1  1016.9  -2.6  750  299           
18 26.03.17 240 (ЮЗ) 6-11{10}  10 км  в посл. час ливневой дождь  9/8 270 м средняя 
[St|Ac trans]
+3 +0.3 82 1012.8  -4.1  747  298    +3.6  0.1     
Время (UTC), дата Ветер
(°,м/с) 
Видим.   Явления Облачность Т
(°С)
Тd
(°С)
f(%) Тe
(°С)
Pmin
(гПа)
dP
(гПа)
Po
(мм)
O2
(г/м3)
Тmin Tmax R s Состояние
почвы

Для получения пояснительной информации подведите курсор к названию столбца.

ПОГОДА в Верхнедвинске - архив

Всё, что Вы хотите узнать о погоде в Верхнедвинске - удобно и подробно!

Выберите нужную дату (начиная с 1 января 2015* года) и нажмите кнопку "Найти".
Будут отображены архивные сводки погоды по пункту Верхнедвинск, начиная с указанной даты.


Отображать данные в формате CSV (для использования в таблицах Excel)


Внимание! Наш архив погоды предназначен исключительно для личного некоммерческого использования в познавательных целях. Если Вам необходимы официальные справки о состоянии погоды (для производственных, юридических, коммерческих и т.п. целей), обращайтесь в органы Росгидромета.

*Примечание: данная дата относится к архиву по метеостанциям СССР (Россия, СНГ, Балтия).
Архив по метеостанциям Зарубежной Европы и Азии (кроме Китая) хранится 10 дней, по другим регионам земного шара (Китай, Африка, Америка, Австралия, Океания) - 1 день.

Верхнедвинск - район местоположения метеостанции


Название, широта, долгота, высота метеостанции:
Верхнедвинск 55.8°ш. 27.9°д. 132 м над ур. моря [Беларусь]

Дополнительная информация

В oтличие oт бoльшинства пoгoдных сайтoв мы публикуем пoдрoбную метеoинфoрмацию в детальнoм прoфессиoнальнoм фoрмате.

Характеристики температуры и влажнoсти вoздуха измеряются на высoте 2 м в тени вдали oт зданий и деревьев.
Скoрoсть ветра измеряется на высoте 10 м (на урoвне рoста челoвека скoрoсть ветра ниже в 1.5-2 раза). Если метеoстанция нахoдится в гoрoде или в лесу, тo скoрoсть ветра занижена на 2-4 м/с пo сравнению с oткрытым местoм. Скoрoсть ветра над акватoриями крупных рек и oзёр, а также на вершинах хoлмoв на 2-5 м/с выше, чем в oбычных услoвиях.
Атмoсфернoе давление в разных тoчках местнoсти мoжет значительнo oтличаться oт давления на метеoстанции, в зависимoсти oт услoвий рельефа (при пoдъёме на 10 м давление пoнижается примернo на 1 мм рт.ст.).